User: anonymous   Login
Location: Unspecified
(0.0000°N, 0.0000°E)
Time: 15:52:33
(UTC+01:00)
Language:

Cosmos 1626 Rocket - Orbit

View from above orbital plane
View from above orbital plane
View from above satellite
View from above satellite

Ground track
Ground track

The orbit data is extracted from the following two-line orbital elements,

1 15495U 85009B   17054.74610495  .00000111  00000-0  10483-4 0  9992
2 15495  82.5244 293.7294 0019844 348.8743  11.2031 14.83753909733145
Epoch (UTC): 23 February 2017 17:54:23
Eccentricity: 0.0019844
inclination: 82.5244°
perigee height: 603 km
apogee height: 631 km
right ascension of ascending node: 293.7294°
argument of perigee: 348.8743°
revolutions per day: 14.83753909
mean anomaly at epoch: 11.2031°
orbit number at epoch: 73314

The dashed part of the orbit path shows where the satellite is in the earth's shadow,  

DLR